This is the latest recevied weather packets stored in our database for station/object WD9EKA. If no packets are shown the sender has not sent any weather packets the latest 10 day(s).
| Time | Temp. | Humidity | Pressure | Rain* | Wind** | Luminosity | Snow |
|---|---|---|---|---|---|---|---|
| 1778042854 | 6.67° C | 99% | 1006.2 hPa | 0.76 mm | - | - | - |
| 1778042494 | 6.67° C | 99% | 1006.3 hPa | 1.02 mm | - | - | - |
| 1778042133 | 6.67° C | 99% | 1006.4 hPa | 1.02 mm | - | - | - |
| 1778041774 | 6.67° C | 99% | 1006.5 hPa | 1.02 mm | - | - | - |
| 1778041414 | 6.67° C | 99% | 1006.2 hPa | 1.02 mm | - | - | - |
| 1778041054 | 6.67° C | 99% | 1006.4 hPa | 1.27 mm | - | - | - |
| 1778040694 | 6.11° C | 99% | 1006.4 hPa | 1.27 mm | - | - | - |
| 1778039974 | 6.67° C | 99% | 1006.4 hPa | 1.02 mm | - | - | - |
| 1778039614 | 6.67° C | 99% | 1006.7 hPa | 0.76 mm | - | - | - |
| 1778039253 | 6.11° C | 99% | 1006.5 hPa | 0.76 mm | - | - | - |
| 1778038894 | 6.11° C | 99% | 1007 hPa | 0.51 mm | - | - | - |
| 1778038534 | 6.11° C | 99% | 1006.8 hPa | 0.51 mm | - | - | - |
| 1778038174 | 6.11° C | 99% | 1006.4 hPa | 0.76 mm | - | - | - |
| 1778037814 | 6.11° C | 99% | 1006.3 hPa | 0.51 mm | - | - | - |
| 1778037454 | 6.67° C | 99% | 1006.3 hPa | 0.51 mm | - | - | - |
| 1778037094 | 6.67° C | 99% | 1006.1 hPa | 0.51 mm | - | - | - |
| 1778036734 | 6.11° C | 99% | 1006.2 hPa | 0.51 mm | - | - | - |
| 1778036374 | 6.67° C | 99% | 1005.7 hPa | 1.02 mm | - | - | - |
| 1778036013 | 6.67° C | 99% | 1005.6 hPa | 1.78 mm | - | - | - |
| 1778035654 | 6.67° C | 99% | 1005.9 hPa | 2.54 mm | - | - | - |
| 1778035293 | 6.67° C | 99% | 1005.7 hPa | 2.79 mm | - | - | - |
| 1778034934 | 6.67° C | 99% | 1005.7 hPa | 3.05 mm | - | - | - |
| 1778034574 | 6.67° C | 99% | 1005.3 hPa | 2.79 mm | - | - | - |
| 1778034214 | 6.67° C | 99% | 1005 hPa | 2.79 mm | - | - | - |
| 1778033854 | 6.67° C | 99% | 1004.8 hPa | 2.54 mm | - | - | - |
* Rain latest hour (hover to see other rain measurements)
** Current wind speed in m/s (hover to see current wind gust speed)